Time,TemperatureF,DewpointF,PressureIn,WindDirection,WindDirectionDegrees,WindSpeedMPH,WindSpeedGustMPH,Humidity,HourlyPrecipIn,Conditions,Clouds,dailyrainin,SoftwareType,DateUTC
2013-02-15 00:00:00,34.7,30.4,29.98,West,259,1.0,19.0,84,0.00,,,0.00,Wunderground v.1.15,2013-02-15 05:00:00,
2013-02-15 00:05:00,34.7,30.4,29.98,WNW,288,1.0,19.0,84,0.00,,,0.00,Wunderground v.1.15,2013-02-15 05:05:00,
2013-02-15 00:10:00,34.7,30.4,29.98,NW,309,2.0,2.0,84,0.00,,,0.00,Wunderground v.1.15,2013-02-15 05:10:00,
2013-02-15 00:15:00,34.8,30.5,29.98,WNW,285,2.0,3.0,84,0.00,,,0.00,Wunderground v.1.15,2013-02-15 05:15:00,
2013-02-15 00:20:00,34.8,30.5,29.98,West,275,2.0,19.0,84,0.00,,,0.00,Wunderground v.1.15,2013-02-15 05:20:00,
2013-02-15 00:25:00,34.7,30.4,29.98,WSW,257,2.0,19.0,84,0.00,,,0.00,Wunderground v.1.15,2013-02-15 05:25:00,
2013-02-15 00:30:00,34.7,30.4,29.99,West,273,2.0,19.0,84,0.00,,,0.00,Wunderground v.1.15,2013-02-15 05:30:00,
2013-02-15 00:35:00,34.6,30.3,29.99,West,261,1.0,19.0,84,0.00,,,0.00,Wunderground v.1.15,2013-02-15 05:35:00,
2013-02-15 00:45:00,34.5,30.2,29.99,West,261,1.0,19.0,84,0.00,,,0.00,Wunderground v.1.15,2013-02-15 05:45:00,
2013-02-15 00:50:00,34.5,30.2,29.99,West,260,1.0,19.0,84,0.00,,,0.00,Wunderground v.1.15,2013-02-15 05:50:00,
2013-02-15 00:55:00,34.5,30.2,29.99,WSW,241,2.0,19.0,84,0.00,,,0.00,Wunderground v.1.15,2013-02-15 05:55:00,
2013-02-15 01:00:00,34.5,30.2,29.99,WSW,243,1.0,19.0,84,0.00,,,0.00,Wunderground v.1.15,2013-02-15 06:00:00,
2013-02-15 01:05:00,34.5,30.2,29.99,WSW,247,1.0,19.0,84,0.00,,,0.00,Wunderground v.1.15,2013-02-15 06:05:00,
2013-02-15 01:10:00,34.4,30.1,29.99,WSW,247,1.0,1.0,84,0.00,,,0.00,Wunderground v.1.15,2013-02-15 06:10:00,
2013-02-15 01:20:00,34.1,29.8,29.99,SW,232,1.0,1.0,84,0.00,,,0.00,Wunderground v.1.15,2013-02-15 06:20:00,
2013-02-15 01:25:00,33.8,29.5,29.99,SW,232,1.0,19.0,84,0.00,,,0.00,Wunderground v.1.15,2013-02-15 06:25:00,
2013-02-15 01:30:00,33.7,29.7,29.99,WSW,244,1.0,1.0,85,0.00,,,0.00,Wunderground v.1.15,2013-02-15 06:30:00,
2013-02-15 01:35:00,33.5,29.5,29.99,WSW,246,1.0,2.0,85,0.00,,,0.00,Wunderground v.1.15,2013-02-15 06:35:00,
2013-02-15 01:40:00,33.3,29.6,29.99,West,279,1.0,19.0,86,0.00,,,0.00,Wunderground v.1.15,2013-02-15 06:40:00,
2013-02-15 01:50:00,33.2,29.5,29.99,SW,226,1.0,1.0,86,0.00,,,0.00,Wunderground v.1.15,2013-02-15 06:50:00,
2013-02-15 01:55:00,33.3,29.8,29.99,SW,236,1.0,19.0,87,0.00,,,0.00,Wunderground v.1.15,2013-02-15 06:55:00,
2013-02-15 02:00:00,33.3,29.6,29.99,SW,236,1.0,1.0,86,0.00,,,0.00,Wunderground v.1.15,2013-02-15 07:00:00,
2013-02-15 02:05:00,33.2,29.5,29.99,SW,236,1.0,19.0,86,0.00,,,0.00,Wunderground v.1.15,2013-02-15 07:05:00,
2013-02-15 02:10:00,33.2,29.5,29.99,SW,236,0.0,19.0,86,0.00,,,0.00,Wunderground v.1.15,2013-02-15 07:10:00,
2013-02-15 02:15:00,32.9,29.2,29.99,SW,236,0.0,19.0,86,0.00,,,0.00,Wunderground v.1.15,2013-02-15 07:15:00,
2013-02-15 02:25:00,32.6,29.2,29.99,SW,236,1.0,2.0,87,0.00,,,0.00,Wunderground v.1.15,2013-02-15 07:25:00,
2013-02-15 02:30:00,32.4,29.0,29.99,SW,236,0.0,19.0,87,0.00,,,0.00,Wunderground v.1.15,2013-02-15 07:30:00,
2013-02-15 02:35:00,32.3,29.1,29.99,WSW,257,1.0,19.0,88,0.00,,,0.00,Wunderground v.1.15,2013-02-15 07:35:00,
2013-02-15 02:40:00,32.4,29.2,29.99,West,264,1.0,1.0,88,0.00,,,0.00,Wunderground v.1.15,2013-02-15 07:40:00,
2013-02-15 02:45:00,32.5,29.3,29.99,West,264,1.0,19.0,88,0.00,,,0.00,Wunderground v.1.15,2013-02-15 07:45:00,
2013-02-15 02:55:00,32.4,29.2,30.00,West,264,0.0,19.0,88,0.00,,,0.00,Wunderground v.1.15,2013-02-15 07:55:00,
2013-02-15 03:00:00,32.3,29.1,30.00,West,264,0.0,19.0,88,0.00,,,0.00,Wunderground v.1.15,2013-02-15 08:00:00,
2013-02-15 03:05:00,32.1,29.2,30.00,West,261,1.0,19.0,89,0.00,,,0.00,Wunderground v.1.15,2013-02-15 08:05:00,
2013-02-15 03:10:00,32.1,29.2,30.00,West,262,0.0,19.0,89,0.00,,,0.00,Wunderground v.1.15,2013-02-15 08:10:00,
2013-02-15 03:15:00,32.1,29.2,30.00,West,262,0.0,19.0,89,0.00,,,0.00,Wunderground v.1.15,2013-02-15 08:15:00,
2013-02-15 03:20:00,32.1,29.2,30.00,West,262,0.0,19.0,89,0.00,,,0.00,Wunderground v.1.15,2013-02-15 08:20:00,
2013-02-15 03:25:00,32.0,29.1,30.00,West,262,0.0,19.0,89,0.00,,,0.00,Wunderground v.1.15,2013-02-15 08:25:00,
2013-02-15 03:30:00,32.0,29.1,30.00,West,262,1.0,1.0,89,0.00,,,0.00,Wunderground v.1.15,2013-02-15 08:30:00,
2013-02-15 03:40:00,31.6,28.7,30.00,West,262,0.0,19.0,89,0.00,,,0.00,Wunderground v.1.15,2013-02-15 08:40:00,
2013-02-15 03:45:00,31.4,28.5,30.00,West,262,0.0,19.0,89,0.00,,,0.00,Wunderground v.1.15,2013-02-15 08:45:00,
2013-02-15 03:50:00,31.2,28.6,30.00,West,264,0.0,19.0,90,0.00,,,0.00,Wunderground v.1.15,2013-02-15 08:50:00,
2013-02-15 03:55:00,31.0,28.7,30.00,WNW,290,1.0,19.0,91,0.00,,,0.00,Wunderground v.1.15,2013-02-15 08:55:00,
2013-02-15 04:00:00,31.1,28.8,30.00,West,280,1.0,19.0,91,0.00,,,0.00,Wunderground v.1.15,2013-02-15 09:00:00,
2013-02-15 04:05:00,31.1,28.8,30.00,West,272,1.0,19.0,91,0.00,,,0.00,Wunderground v.1.15,2013-02-15 09:05:00,
2013-02-15 04:15:00,31.1,29.0,30.00,West,273,1.0,19.0,92,0.00,,,0.00,Wunderground v.1.15,2013-02-15 09:15:00,
2013-02-15 04:20:00,31.3,29.2,30.00,WNW,290,2.0,2.0,92,0.00,,,0.00,Wunderground v.1.15,2013-02-15 09:20:00,
2013-02-15 04:25:00,31.3,29.2,30.00,WNW,291,2.0,19.0,92,0.00,,,0.00,Wunderground v.1.15,2013-02-15 09:25:00,
2013-02-15 04:30:00,31.3,29.2,30.01,West,270,1.0,19.0,92,0.00,,,0.00,Wunderground v.1.15,2013-02-15 09:30:00,
2013-02-15 04:40:00,31.0,28.9,30.01,West,272,1.0,1.0,92,0.00,,,0.00,Wunderground v.1.15,2013-02-15 09:40:00,
2013-02-15 04:45:00,31.1,29.3,30.01,West,261,1.0,19.0,93,0.00,,,0.00,Wunderground v.1.15,2013-02-15 09:45:00,
2013-02-15 04:50:00,31.3,29.5,30.01,WNW,294,1.0,19.0,93,0.00,,,0.00,Wunderground v.1.15,2013-02-15 09:50:00,
2013-02-15 04:55:00,31.5,29.7,30.01,West,277,1.0,19.0,93,0.00,,,0.00,Wunderground v.1.15,2013-02-15 09:55:00,
2013-02-15 05:05:00,31.8,30.0,30.02,West,277,2.0,19.0,93,0.00,,,0.00,Wunderground v.1.15,2013-02-15 10:05:00,
2013-02-15 05:10:00,31.9,30.1,30.02,NW,310,2.0,19.0,93,0.00,,,0.00,Wunderground v.1.15,2013-02-15 10:10:00,
2013-02-15 05:15:00,32.1,30.3,30.02,WNW,298,2.0,19.0,93,0.00,,,0.00,Wunderground v.1.15,2013-02-15 10:15:00,
2013-02-15 05:20:00,32.1,30.3,30.02,WNW,298,1.0,19.0,93,0.00,,,0.00,Wunderground v.1.15,2013-02-15 10:20:00,
2013-02-15 05:25:00,32.2,30.4,30.02,WNW,298,1.0,19.0,93,0.00,,,0.00,Wunderground v.1.15,2013-02-15 10:25:00,
2013-02-15 05:30:00,32.2,30.4,30.02,WNW,298,2.0,19.0,93,0.00,,,0.00,Wunderground v.1.15,2013-02-15 10:30:00,
2013-02-15 05:35:00,32.2,30.4,30.02,WNW,298,2.0,19.0,93,0.00,,,0.00,Wunderground v.1.15,2013-02-15 10:35:00,
2013-02-15 05:40:00,32.1,30.3,30.02,West,275,2.0,2.0,93,0.00,,,0.00,Wunderground v.1.15,2013-02-15 10:40:00,
2013-02-15 05:45:00,32.1,30.3,30.02,West,275,1.0,19.0,93,0.00,,,0.00,Wunderground v.1.15,2013-02-15 10:45:00,
2013-02-15 05:55:00,32.3,30.2,30.03,NW,304,2.0,19.0,92,0.00,,,0.00,Wunderground v.1.15,2013-02-15 10:55:00,
2013-02-15 06:00:00,32.3,30.2,30.03,NW,305,2.0,2.0,92,0.00,,,0.00,Wunderground v.1.15,2013-02-15 11:00:00,
2013-02-15 06:10:00,32.3,30.2,30.03,West,271,1.0,3.0,92,0.00,,,0.00,Wunderground v.1.15,2013-02-15 11:10:00,
2013-02-15 06:15:00,32.3,30.2,30.03,West,281,1.0,3.0,92,0.00,,,0.00,Wunderground v.1.15,2013-02-15 11:15:00,
2013-02-15 06:20:00,32.3,30.0,30.03,West,280,2.0,2.0,91,0.00,,,0.00,Wunderground v.1.15,2013-02-15 11:20:00,
2013-02-15 06:25:00,32.3,30.0,30.04,WNW,296,3.0,5.0,91,0.00,,,0.00,Wunderground v.1.15,2013-02-15 11:25:00,
2013-02-15 06:30:00,32.4,30.1,30.03,WNW,298,3.0,3.0,91,0.00,,,0.00,Wunderground v.1.15,2013-02-15 11:30:00,
2013-02-15 06:35:00,32.4,30.1,30.04,WNW,286,2.0,3.0,91,0.00,,,0.00,Wunderground v.1.15,2013-02-15 11:35:00,
2013-02-15 06:40:00,32.4,29.8,30.04,NW,313,3.0,3.0,90,0.00,,,0.00,Wunderground v.1.15,2013-02-15 11:40:00,
2013-02-15 06:45:00,32.4,29.8,30.04,NW,319,3.0,3.0,90,0.00,,,0.00,Wunderground v.1.15,2013-02-15 11:45:00,
2013-02-15 06:50:00,32.5,29.9,30.04,WSW,255,2.0,4.0,90,0.00,,,0.00,Wunderground v.1.15,2013-02-15 11:50:00,
2013-02-15 06:55:00,32.5,29.9,30.05,WNW,292,2.0,4.0,90,0.00,,,0.00,Wunderground v.1.15,2013-02-15 11:55:00,
2013-02-15 07:00:00,32.6,30.0,30.05,West,277,3.0,3.0,90,0.00,,,0.00,Wunderground v.1.15,2013-02-15 12:00:00,
2013-02-15 07:05:00,32.6,30.0,30.05,WNW,290,3.0,5.0,90,0.00,,,0.00,Wunderground v.1.15,2013-02-15 12:05:00,
2013-02-15 07:15:00,32.7,30.4,30.05,NNW,333,4.0,6.0,91,0.00,,,0.00,Wunderground v.1.15,2013-02-15 12:15:00,
2013-02-15 07:20:00,32.7,30.4,30.05,WNW,299,5.0,5.0,91,0.00,,,0.00,Wunderground v.1.15,2013-02-15 12:20:00,
2013-02-15 07:25:00,32.7,30.4,30.05,West,279,5.0,5.0,91,0.00,,,0.00,Wunderground v.1.15,2013-02-15 12:25:00,
2013-02-15 07:30:00,32.7,30.4,30.06,WNW,300,3.0,3.0,91,0.00,,,0.00,Wunderground v.1.15,2013-02-15 12:30:00,
2013-02-15 07:40:00,32.7,30.4,30.06,NW,307,4.0,8.0,91,0.00,,,0.00,Wunderground v.1.15,2013-02-15 12:40:00,
2013-02-15 07:45:00,32.7,30.4,30.06,WNW,298,5.0,8.0,91,0.00,,,0.00,Wunderground v.1.15,2013-02-15 12:45:00,
2013-02-15 07:55:00,32.6,30.3,30.06,NW,315,4.0,5.0,91,0.00,,,0.00,Wunderground v.1.15,2013-02-15 12:55:00,
2013-02-15 08:00:00,32.6,30.3,30.07,WNW,291,3.0,3.0,91,0.00,,,0.00,Wunderground v.1.15,2013-02-15 13:00:00,
2013-02-15 08:05:00,32.6,30.3,30.07,NW,305,4.0,4.0,91,0.00,,,0.00,Wunderground v.1.15,2013-02-15 13:05:00,
2013-02-15 08:10:00,32.6,30.3,30.07,NW,309,4.0,5.0,91,0.00,,,0.00,Wunderground v.1.15,2013-02-15 13:10:00,
2013-02-15 08:15:00,32.6,30.3,30.07,WNW,300,4.0,5.0,91,0.00,,,0.00,Wunderground v.1.15,2013-02-15 13:15:00,
2013-02-15 08:20:00,32.6,30.0,30.07,NW,313,5.0,7.0,90,0.00,,,0.00,Wunderground v.1.15,2013-02-15 13:20:00,
2013-02-15 08:25:00,32.6,30.3,30.08,NW,304,5.0,7.0,91,0.00,,,0.00,Wunderground v.1.15,2013-02-15 13:25:00,
2013-02-15 08:30:00,32.6,30.0,30.08,NW,320,5.0,5.0,90,0.00,,,0.00,Wunderground v.1.15,2013-02-15 13:30:00,
2013-02-15 08:35:00,32.6,30.3,30.08,WNW,298,5.0,5.0,91,0.00,,,0.00,Wunderground v.1.15,2013-02-15 13:35:00,
2013-02-15 08:40:00,32.6,30.3,30.08,NW,309,5.0,5.0,91,0.00,,,0.00,Wunderground v.1.15,2013-02-15 13:40:00,
2013-02-15 08:50:00,32.5,29.9,30.08,NW,305,5.0,5.0,90,0.00,,,0.00,Wunderground v.1.15,2013-02-15 13:50:00,
2013-02-15 08:55:00,32.5,29.9,30.09,WNW,299,7.0,10.0,90,0.00,,,0.00,Wunderground v.1.15,2013-02-15 13:55:00,
2013-02-15 09:00:00,32.5,29.6,30.09,NNW,327,7.0,7.0,89,0.00,,,0.00,Wunderground v.1.15,2013-02-15 14:00:00,
2013-02-15 09:05:00,32.5,29.9,30.09,NW,319,6.0,7.0,90,0.00,,,0.00,Wunderground v.1.15,2013-02-15 14:05:00,
2013-02-15 09:10:00,32.5,29.6,30.09,NW,307,5.0,7.0,89,0.00,,,0.00,Wunderground v.1.15,2013-02-15 14:10:00,
2013-02-15 09:15:00,32.5,29.6,30.09,NW,312,6.0,7.0,89,0.00,,,0.00,Wunderground v.1.15,2013-02-15 14:15:00,
2013-02-15 09:25:00,32.5,29.6,30.09,WNW,286,6.0,8.0,89,0.00,,,0.00,Wunderground v.1.15,2013-02-15 14:25:00,
2013-02-15 09:30:00,32.5,29.6,30.10,WNW,286,6.0,6.0,89,0.00,,,0.00,Wunderground v.1.15,2013-02-15 14:30:00,
2013-02-15 09:35:00,32.5,29.3,30.10,WNW,292,6.0,7.0,88,0.00,,,0.00,Wunderground v.1.15,2013-02-15 14:35:00,
2013-02-15 09:40:00,32.7,29.5,30.10,WNW,282,6.0,6.0,88,0.00,,,0.00,Wunderground v.1.15,2013-02-15 14:40:00,
2013-02-15 09:45:00,32.7,29.5,30.10,WNW,297,6.0,6.0,88,0.00,,,0.00,Wunderground v.1.15,2013-02-15 14:45:00,
2013-02-15 09:55:00,33.3,30.1,30.10,WNW,295,5.0,5.0,88,0.00,,,0.00,Wunderground v.1.15,2013-02-15 14:55:00,
2013-02-15 10:00:00,33.2,30.0,30.10,SW,230,6.0,6.0,88,0.00,,,0.00,Wunderground v.1.15,2013-02-15 15:00:00,
2013-02-15 10:05:00,32.6,30.0,30.11,WNW,284,6.0,6.0,90,0.00,,,0.00,Wunderground v.1.15,2013-02-15 15:05:00,
2013-02-15 10:10:00,32.0,29.7,30.11,WNW,289,6.0,6.0,91,0.00,,,0.00,Wunderground v.1.15,2013-02-15 15:10:00,
2013-02-15 10:15:00,31.7,29.4,30.11,NW,326,7.0,12.0,91,0.00,,,0.00,Wunderground v.1.15,2013-02-15 15:15:00,
2013-02-15 10:20:00,31.2,29.1,30.11,WNW,300,8.0,14.0,92,0.00,,,0.00,Wunderground v.1.15,2013-02-15 15:20:00,
2013-02-15 10:30:00,31.0,29.5,30.12,NW,323,7.0,11.0,94,0.00,,,0.00,Wunderground v.1.15,2013-02-15 15:30:00,
2013-02-15 10:35:00,30.8,29.0,30.12,NNW,331,7.0,11.0,93,0.00,,,0.00,Wunderground v.1.15,2013-02-15 15:35:00,
2013-02-15 10:40:00,30.8,29.0,30.12,NW,309,7.0,10.0,93,0.00,,,0.00,Wunderground v.1.15,2013-02-15 15:40:00,
2013-02-15 10:45:00,30.8,28.8,30.12,NW,319,7.0,10.0,92,0.00,,,0.00,Wunderground v.1.15,2013-02-15 15:45:00,
2013-02-15 10:50:00,30.7,28.4,30.13,NNW,338,6.0,9.0,91,0.00,,,0.00,Wunderground v.1.15,2013-02-15 15:50:00,
2013-02-15 11:00:00,31.0,28.7,30.13,NW,307,5.0,5.0,91,0.00,,,0.00,Wunderground v.1.15,2013-02-15 16:00:00,
2013-02-15 11:05:00,31.2,28.6,30.13,NNW,329,5.0,5.0,90,0.00,,,0.00,Wunderground v.1.15,2013-02-15 16:05:00,
2013-02-15 11:10:00,31.3,28.7,30.13,NW,312,6.0,6.0,90,0.00,,,0.00,Wunderground v.1.15,2013-02-15 16:10:00,
2013-02-15 11:15:00,31.0,28.1,30.13,North,355,7.0,7.0,89,0.00,,,0.00,Wunderground v.1.15,2013-02-15 16:15:00,
2013-02-15 11:20:00,30.3,27.2,30.13,NW,321,7.0,7.0,88,0.00,,,0.00,Wunderground v.1.15,2013-02-15 16:20:00,
2013-02-15 11:25:00,30.1,27.3,30.14,NW,313,7.0,7.0,89,0.00,,,0.00,Wunderground v.1.15,2013-02-15 16:25:00,
2013-02-15 11:35:00,29.8,27.2,30.14,NW,306,6.0,6.0,90,0.00,,,0.00,Wunderground v.1.15,2013-02-15 16:35:00,
2013-02-15 11:40:00,29.5,27.2,30.15,NW,308,6.0,6.0,91,0.00,,,0.00,Wunderground v.1.15,2013-02-15 16:40:00,
2013-02-15 11:45:00,29.4,27.4,30.15,NNW,335,6.0,7.0,92,0.00,,,0.00,Wunderground v.1.15,2013-02-15 16:45:00,
2013-02-15 11:50:00,29.6,27.8,30.15,NW,310,5.0,5.0,93,0.00,,,0.00,Wunderground v.1.15,2013-02-15 16:50:00,
2013-02-15 11:55:00,29.7,27.9,30.15,North,350,5.0,5.0,93,0.00,,,0.00,Wunderground v.1.15,2013-02-15 16:55:00,
2013-02-15 12:05:00,30.1,27.5,30.15,NNW,342,6.0,8.0,90,0.00,,,0.00,Wunderground v.1.15,2013-02-15 17:05:00,
2013-02-15 12:10:00,30.5,27.9,30.15,NNW,329,6.0,6.0,90,0.00,,,0.00,Wunderground v.1.15,2013-02-15 17:10:00,
2013-02-15 12:15:00,30.3,26.6,30.15,NNW,333,7.0,7.0,86,0.00,,,0.00,Wunderground v.1.15,2013-02-15 17:15:00,
2013-02-15 12:20:00,30.1,26.7,30.15,NNW,328,7.0,7.0,87,0.00,,,0.00,Wunderground v.1.15,2013-02-15 17:20:00,
2013-02-15 12:25:00,30.1,27.0,30.15,NNW,338,7.0,7.0,88,0.00,,,0.00,Wunderground v.1.15,2013-02-15 17:25:00,
2013-02-15 12:30:00,30.3,27.2,30.15,NNW,348,6.0,6.0,88,0.00,,,0.00,Wunderground v.1.15,2013-02-15 17:30:00,
2013-02-15 12:40:00,31.1,27.4,30.15,NW,321,7.0,7.0,86,0.00,,,0.00,Wunderground v.1.15,2013-02-15 17:40:00,
2013-02-15 12:45:00,31.2,26.9,30.15,NW,309,8.0,9.0,84,0.00,,,0.00,Wunderground v.1.15,2013-02-15 17:45:00,
2013-02-15 12:50:00,31.3,26.4,30.15,NNW,335,8.0,10.0,82,0.00,,,0.00,Wunderground v.1.15,2013-02-15 17:50:00,
2013-02-15 12:55:00,31.3,26.4,30.15,NNW,338,7.0,10.0,82,0.00,,,0.00,Wunderground v.1.15,2013-02-15 17:55:00,
2013-02-15 13:00:00,32.0,26.5,30.15,NW,308,7.0,7.0,80,0.00,,,0.00,Wunderground v.1.15,2013-02-15 18:00:00,
2013-02-15 13:10:00,31.3,25.8,30.15,NNW,333,7.0,7.0,80,0.00,,,0.00,Wunderground v.1.15,2013-02-15 18:10:00,
2013-02-15 13:15:00,31.1,25.3,30.15,NW,315,6.0,7.0,79,0.00,,,0.00,Wunderground v.1.15,2013-02-15 18:15:00,
2013-02-15 13:20:00,31.3,25.5,30.15,NNW,333,6.0,8.0,79,0.00,,,0.00,Wunderground v.1.15,2013-02-15 18:20:00,
2013-02-15 13:25:00,31.1,23.5,30.15,NW,326,8.0,10.0,73,0.00,,,0.00,Wunderground v.1.15,2013-02-15 18:25:00,
2013-02-15 13:30:00,31.1,24.1,30.15,WNW,284,9.0,10.0,75,0.00,,,0.00,Wunderground v.1.15,2013-02-15 18:30:00,
2013-02-15 13:35:00,31.2,24.2,30.15,WNW,288,9.0,10.0,75,0.00,,,0.00,Wunderground v.1.15,2013-02-15 18:35:00,
2013-02-15 13:45:00,31.4,23.7,30.15,NW,317,8.0,9.0,73,0.00,,,0.00,Wunderground v.1.15,2013-02-15 18:45:00,
2013-02-15 13:50:00,31.1,23.5,30.15,West,267,8.0,8.0,73,0.00,,,0.00,Wunderground v.1.15,2013-02-15 18:50:00,
2013-02-15 14:00:00,31.0,24.0,30.15,West,268,7.0,7.0,75,0.00,,,0.00,Wunderground v.1.15,2013-02-15 19:00:00,
2013-02-15 14:05:00,30.9,24.5,30.15,WNW,293,7.0,7.0,77,0.00,,,0.00,Wunderground v.1.15,2013-02-15 19:05:00,
2013-02-15 14:10:00,30.8,23.8,30.14,WNW,301,7.0,7.0,75,0.00,,,0.00,Wunderground v.1.15,2013-02-15 19:10:00,
2013-02-15 14:15:00,30.7,23.4,30.14,NNW,338,8.0,11.0,74,0.00,,,0.00,Wunderground v.1.15,2013-02-15 19:15:00,
2013-02-15 14:20:00,30.7,23.4,30.14,NW,319,8.0,8.0,74,0.00,,,0.00,Wunderground v.1.15,2013-02-15 19:20:00,
2013-02-15 14:25:00,31.3,23.6,30.14,NW,308,8.0,8.0,73,0.00,,,0.00,Wunderground v.1.15,2013-02-15 19:25:00,
2013-02-15 14:30:00,31.1,23.5,30.14,WNW,299,8.0,8.0,73,0.00,,,0.00,Wunderground v.1.15,2013-02-15 19:30:00,
2013-02-15 14:35:00,30.7,22.4,30.14,NNW,329,8.0,8.0,71,0.00,,,0.00,Wunderground v.1.15,2013-02-15 19:35:00,
2013-02-15 14:40:00,31.1,22.8,30.14,NW,319,7.0,7.0,71,0.00,,,0.00,Wunderground v.1.15,2013-02-15 19:40:00,
2013-02-15 14:50:00,32.1,22.0,30.15,NW,309,7.0,7.0,66,0.00,,,0.00,Wunderground v.1.15,2013-02-15 19:50:00,
2013-02-15 14:55:00,32.6,22.5,30.14,NW,326,7.0,7.0,66,0.00,,,0.00,Wunderground v.1.15,2013-02-15 19:55:00,
2013-02-15 15:00:00,33.2,22.7,30.15,North,351,7.0,8.0,65,0.00,,,0.00,Wunderground v.1.15,2013-02-15 20:00:00,
2013-02-15 15:05:00,32.9,21.7,30.15,NNW,335,7.0,9.0,63,0.00,,,0.00,Wunderground v.1.15,2013-02-15 20:05:00,
2013-02-15 15:10:00,32.5,20.5,30.15,NNW,331,7.0,8.0,61,0.00,,,0.00,Wunderground v.1.15,2013-02-15 20:10:00,
2013-02-15 15:20:00,32.3,20.7,30.15,NW,323,7.0,9.0,62,0.00,,,0.00,Wunderground v.1.15,2013-02-15 20:20:00,
2013-02-15 15:25:00,32.6,19.8,30.15,WNW,288,6.0,9.0,59,0.00,,,0.00,Wunderground v.1.15,2013-02-15 20:25:00,
2013-02-15 15:30:00,33.0,20.2,30.15,NW,304,7.0,10.0,59,0.00,,,0.00,Wunderground v.1.15,2013-02-15 20:30:00,
2013-02-15 15:35:00,33.0,19.0,30.15,NW,304,6.0,10.0,56,0.00,,,0.00,Wunderground v.1.15,2013-02-15 20:35:00,
2013-02-15 15:40:00,33.4,18.5,30.15,NW,315,7.0,9.0,54,0.00,,,0.00,Wunderground v.1.15,2013-02-15 20:40:00,
2013-02-15 15:45:00,33.5,20.3,30.15,NW,326,7.0,9.0,58,0.00,,,0.00,Wunderground v.1.15,2013-02-15 20:45:00,
2013-02-15 15:55:00,33.7,20.9,30.15,NNW,346,6.0,12.0,59,0.00,,,0.00,Wunderground v.1.15,2013-02-15 20:55:00,
2013-02-15 16:00:00,33.9,20.3,30.16,NW,320,6.0,8.0,57,0.00,,,0.00,Wunderground v.1.15,2013-02-15 21:00:00,
2013-02-15 16:05:00,33.5,18.6,30.16,NNW,336,7.0,8.0,54,0.00,,,0.00,Wunderground v.1.15,2013-02-15 21:05:00,
2013-02-15 16:10:00,32.6,18.2,30.16,WNW,296,8.0,11.0,55,0.00,,,0.00,Wunderground v.1.15,2013-02-15 21:10:00,
2013-02-15 16:15:00,32.5,18.9,30.16,NW,313,8.0,11.0,57,0.00,,,0.00,Wunderground v.1.15,2013-02-15 21:15:00,
2013-02-15 16:25:00,33.4,19.8,30.16,NNW,333,7.0,11.0,57,0.00,,,0.00,Wunderground v.1.15,2013-02-15 21:25:00,
2013-02-15 16:30:00,33.3,19.3,30.16,North,349,7.0,9.0,56,0.00,,,0.00,Wunderground v.1.15,2013-02-15 21:30:00,
2013-02-15 16:35:00,33.1,18.7,30.16,NW,322,8.0,9.0,55,0.00,,,0.00,Wunderground v.1.15,2013-02-15 21:35:00,
2013-02-15 16:40:00,33.0,18.6,30.16,NNW,335,8.0,8.0,55,0.00,,,0.00,Wunderground v.1.15,2013-02-15 21:40:00,
2013-02-15 16:45:00,33.0,19.4,30.16,WNW,296,7.0,8.0,57,0.00,,,0.00,Wunderground v.1.15,2013-02-15 21:45:00,
2013-02-15 16:50:00,32.7,18.7,30.16,NW,304,6.0,6.0,56,0.00,,,0.00,Wunderground v.1.15,2013-02-15 21:50:00,
2013-02-15 17:00:00,33.2,18.8,30.17,NW,304,6.0,6.0,55,0.00,,,0.00,Wunderground v.1.15,2013-02-15 22:00:00,
2013-02-15 17:05:00,32.8,19.2,30.17,NW,321,6.0,6.0,57,0.00,,,0.00,Wunderground v.1.15,2013-02-15 22:05:00,
2013-02-15 17:10:00,32.8,18.8,30.17,NW,319,6.0,6.0,56,0.00,,,0.00,Wunderground v.1.15,2013-02-15 22:10:00,
2013-02-15 17:15:00,32.8,18.4,30.17,NNW,340,6.0,7.0,55,0.00,,,0.00,Wunderground v.1.15,2013-02-15 22:15:00,
2013-02-15 17:20:00,32.6,17.3,30.17,NNW,328,7.0,7.0,53,0.00,,,0.00,Wunderground v.1.15,2013-02-15 22:20:00,
2013-02-15 17:30:00,32.4,17.6,30.17,NW,306,6.0,6.0,54,0.00,,,0.00,Wunderground v.1.15,2013-02-15 22:30:00,
2013-02-15 17:40:00,32.0,17.2,30.17,West,270,5.0,5.0,54,0.00,,,0.00,Wunderground v.1.15,2013-02-15 22:40:00,
2013-02-15 17:45:00,31.7,17.8,30.17,NW,306,5.0,5.0,56,0.00,,,0.00,Wunderground v.1.15,2013-02-15 22:45:00,
2013-02-15 17:50:00,31.5,18.0,30.17,NW,315,5.0,5.0,57,0.00,,,0.00,Wunderground v.1.15,2013-02-15 22:50:00,
2013-02-15 17:55:00,31.4,17.9,30.17,NW,311,5.0,6.0,57,0.00,,,0.00,Wunderground v.1.15,2013-02-15 22:55:00,
2013-02-15 18:00:00,31.3,17.8,30.17,NW,324,5.0,5.0,57,0.00,,,0.00,Wunderground v.1.15,2013-02-15 23:00:00,
2013-02-15 18:05:00,31.1,18.0,30.18,NNW,332,5.0,5.0,58,0.00,,,0.00,Wunderground v.1.15,2013-02-15 23:05:00,
2013-02-15 18:15:00,30.9,18.2,30.18,West,273,4.0,6.0,59,0.00,,,0.00,Wunderground v.1.15,2013-02-15 23:15:00,
2013-02-15 18:25:00,30.5,18.6,30.18,WNW,296,3.0,5.0,61,0.00,,,0.00,Wunderground v.1.15,2013-02-15 23:25:00,
2013-02-15 18:30:00,30.5,19.0,30.18,West,262,4.0,6.0,62,0.00,,,0.00,Wunderground v.1.15,2013-02-15 23:30:00,
2013-02-15 18:35:00,30.3,19.2,30.18,WNW,285,3.0,6.0,63,0.00,,,0.00,Wunderground v.1.15,2013-02-15 23:35:00,
2013-02-15 18:40:00,30.1,19.4,30.18,West,277,3.0,3.0,64,0.00,,,0.00,Wunderground v.1.15,2013-02-15 23:40:00,
2013-02-15 18:45:00,29.9,19.6,30.19,WNW,285,3.0,5.0,65,0.00,,,0.00,Wunderground v.1.15,2013-02-15 23:45:00,
2013-02-15 18:50:00,29.8,19.5,30.18,West,275,2.0,2.0,65,0.00,,,0.00,Wunderground v.1.15,2013-02-15 23:50:00,
2013-02-15 18:55:00,29.7,19.4,30.19,WNW,290,2.0,5.0,65,0.00,,,0.00,Wunderground v.1.15,2013-02-15 23:55:00,
2013-02-15 19:00:00,29.5,19.5,30.19,WNW,285,2.0,5.0,66,0.00,,,0.00,Wunderground v.1.15,2013-02-16 00:00:00,
2013-02-15 19:10:00,29.4,19.4,30.19,WNW,296,3.0,5.0,66,0.00,,,0.00,Wunderground v.1.15,2013-02-16 00:10:00,
2013-02-15 19:15:00,29.3,19.3,30.19,WNW,302,3.0,5.0,66,0.00,,,0.00,Wunderground v.1.15,2013-02-16 00:15:00,
2013-02-15 19:20:00,29.1,19.2,30.19,West,274,2.0,5.0,66,0.00,,,0.00,Wunderground v.1.15,2013-02-16 00:20:00,
2013-02-15 19:25:00,29.0,19.1,30.19,WNW,282,2.0,5.0,66,0.00,,,0.00,Wunderground v.1.15,2013-02-16 00:25:00,
2013-02-15 19:30:00,28.9,19.0,30.19,WNW,284,2.0,2.0,66,0.00,,,0.00,Wunderground v.1.15,2013-02-16 00:30:00,
2013-02-15 19:35:00,28.7,19.1,30.19,WNW,284,1.0,5.0,67,0.00,,,0.00,Wunderground v.1.15,2013-02-16 00:35:00,
2013-02-15 19:45:00,28.0,19.1,30.19,WNW,284,0.0,5.0,69,0.00,,,0.00,Wunderground v.1.15,2013-02-16 00:45:00,
2013-02-15 19:50:00,27.8,19.3,30.18,WNW,284,0.0,5.0,70,0.00,,,0.00,Wunderground v.1.15,2013-02-16 00:50:00,
2013-02-15 19:55:00,27.4,19.2,30.19,WNW,284,0.0,5.0,71,0.00,,,0.00,Wunderground v.1.15,2013-02-16 00:55:00,
2013-02-15 20:00:00,27.1,19.3,30.19,WNW,284,0.0,5.0,72,0.00,,,0.00,Wunderground v.1.15,2013-02-16 01:00:00,
2013-02-15 20:05:00,26.8,19.3,30.19,WNW,284,0.0,5.0,73,0.00,,,0.00,Wunderground v.1.15,2013-02-16 01:05:00,
2013-02-15 20:15:00,26.5,19.3,30.19,WNW,284,0.0,5.0,74,0.00,,,0.00,Wunderground v.1.15,2013-02-16 01:15:00,
2013-02-15 20:20:00,26.3,19.5,30.19,WNW,284,0.0,5.0,75,0.00,,,0.00,Wunderground v.1.15,2013-02-16 01:20:00,
2013-02-15 20:25:00,26.2,19.4,30.19,WNW,284,0.0,5.0,75,0.00,,,0.00,Wunderground v.1.15,2013-02-16 01:25:00,
2013-02-15 20:30:00,26.2,19.4,30.19,WNW,284,0.0,5.0,75,0.00,,,0.00,Wunderground v.1.15,2013-02-16 01:30:00,
2013-02-15 20:35:00,26.1,19.3,30.19,WNW,284,0.0,5.0,75,0.00,,,0.00,Wunderground v.1.15,2013-02-16 01:35:00,
2013-02-15 20:40:00,25.8,19.3,30.18,WNW,284,0.0,5.0,76,0.00,,,0.00,Wunderground v.1.15,2013-02-16 01:40:00,
2013-02-15 20:50:00,25.3,18.8,30.19,WNW,284,0.0,5.0,76,0.00,,,0.00,Wunderground v.1.15,2013-02-16 01:50:00,
2013-02-15 20:55:00,25.1,18.9,30.18,WNW,284,0.0,5.0,77,0.00,,,0.00,Wunderground v.1.15,2013-02-16 01:55:00,
2013-02-15 21:00:00,24.9,19.0,30.18,WNW,284,0.0,5.0,78,0.00,,,0.00,Wunderground v.1.15,2013-02-16 02:00:00,
2013-02-15 21:05:00,24.7,18.8,30.18,WNW,284,0.0,5.0,78,0.00,,,0.00,Wunderground v.1.15,2013-02-16 02:05:00,
2013-02-15 21:10:00,24.5,18.9,30.18,WNW,284,0.0,5.0,79,0.00,,,0.00,Wunderground v.1.15,2013-02-16 02:10:00,
2013-02-15 21:15:00,24.4,18.8,30.18,WNW,284,0.0,5.0,79,0.00,,,0.00,Wunderground v.1.15,2013-02-16 02:15:00,
2013-02-15 21:20:00,24.3,18.7,30.18,WNW,284,0.0,5.0,79,0.00,,,0.00,Wunderground v.1.15,2013-02-16 02:20:00,
2013-02-15 21:25:00,24.2,19.2,30.18,WNW,284,0.0,5.0,81,0.00,,,0.00,Wunderground v.1.15,2013-02-16 02:25:00,
2013-02-15 21:30:00,24.1,19.1,30.18,WNW,284,0.0,5.0,81,0.00,,,0.00,Wunderground v.1.15,2013-02-16 02:30:00,
2013-02-15 21:35:00,24.0,19.0,30.18,WNW,284,0.0,5.0,81,0.00,,,0.00,Wunderground v.1.15,2013-02-16 02:35:00,
2013-02-15 21:40:00,24.0,19.3,30.18,WNW,284,0.0,5.0,82,0.00,,,0.00,Wunderground v.1.15,2013-02-16 02:40:00,
2013-02-15 21:45:00,24.1,19.4,30.18,WNW,284,0.0,5.0,82,0.00,,,0.00,Wunderground v.1.15,2013-02-16 02:45:00,
2013-02-15 21:55:00,24.3,19.9,30.18,WNW,284,0.0,5.0,83,0.00,,,0.00,Wunderground v.1.15,2013-02-16 02:55:00,
2013-02-15 22:00:00,24.3,19.6,30.18,WNW,284,0.0,5.0,82,0.00,,,0.00,Wunderground v.1.15,2013-02-16 03:00:00,
2013-02-15 22:05:00,24.3,19.9,30.18,WNW,284,0.0,5.0,83,0.00,,,0.00,Wunderground v.1.15,2013-02-16 03:05:00,
2013-02-15 22:10:00,24.3,19.9,30.18,WNW,284,0.0,5.0,83,0.00,,,0.00,Wunderground v.1.15,2013-02-16 03:10:00,
2013-02-15 22:15:00,24.3,19.9,30.18,WNW,284,0.0,5.0,83,0.00,,,0.00,Wunderground v.1.15,2013-02-16 03:15:00,
2013-02-15 22:25:00,24.4,19.7,30.18,WNW,284,0.0,5.0,82,0.00,,,0.00,Wunderground v.1.15,2013-02-16 03:25:00,
2013-02-15 22:30:00,24.3,19.6,30.18,WNW,284,0.0,5.0,82,0.00,,,0.00,Wunderground v.1.15,2013-02-16 03:30:00,
2013-02-15 22:35:00,24.4,19.7,30.18,West,280,0.0,5.0,82,0.00,,,0.00,Wunderground v.1.15,2013-02-16 03:35:00,
2013-02-15 22:40:00,24.4,19.7,30.18,West,269,0.0,5.0,82,0.00,,,0.00,Wunderground v.1.15,2013-02-16 03:40:00,
2013-02-15 22:45:00,25.1,20.1,30.18,SW,230,1.0,5.0,81,0.00,,,0.00,Wunderground v.1.15,2013-02-16 03:45:00,
2013-02-15 22:50:00,25.6,20.3,30.18,NW,306,2.0,5.0,80,0.00,,,0.00,Wunderground v.1.15,2013-02-16 03:50:00,
2013-02-15 23:00:00,26.1,20.2,30.17,West,261,1.0,5.0,78,0.00,,,0.00,Wunderground v.1.15,2013-02-16 04:00:00,
2013-02-15 23:05:00,26.1,20.5,30.17,WNW,290,1.0,5.0,79,0.00,,,0.00,Wunderground v.1.15,2013-02-16 04:05:00,
2013-02-15 23:10:00,26.1,20.5,30.17,WNW,290,1.0,1.0,79,0.00,,,0.00,Wunderground v.1.15,2013-02-16 04:10:00,
2013-02-15 23:20:00,26.4,20.5,30.17,WNW,290,2.0,5.0,78,0.00,,,0.00,Wunderground v.1.15,2013-02-16 04:20:00,
2013-02-15 23:25:00,26.6,20.7,30.17,NW,319,3.0,5.0,78,0.00,,,0.00,Wunderground v.1.15,2013-02-16 04:25:00,
2013-02-15 23:30:00,26.7,20.8,30.17,WNW,298,4.0,4.0,78,0.00,,,0.00,Wunderground v.1.15,2013-02-16 04:30:00,
2013-02-15 23:35:00,26.7,20.8,30.17,WNW,293,3.0,5.0,78,0.00,,,0.00,Wunderground v.1.15,2013-02-16 04:35:00,
2013-02-15 23:40:00,26.5,20.6,30.17,WNW,302,3.0,5.0,78,0.00,,,0.00,Wunderground v.1.15,2013-02-16 04:40:00,
2013-02-15 23:45:00,26.5,20.0,30.17,WNW,288,4.0,8.0,76,0.00,,,0.00,Wunderground v.1.15,2013-02-16 04:45:00,
2013-02-15 23:55:00,26.2,19.4,30.17,WNW,294,5.0,5.0,75,0.00,,,0.00,Wunderground v.1.15,2013-02-16 04:55:00,